AirNav   Everest Fuels
 
 812 users online  

KTGC Gibson County Airport
Trenton, Tennessee, USA

GOING TO TRENTON?


FAA INFORMATION EFFECTIVE 15 AUGUST 2019

Location

FAA Identifier: TGC
Lat/Long: 35-55-56.8370N 088-50-56.1850W
35-55.947283N 088-50.936417W
35.9324547,-88.8489403
(estimated)
Elevation: 358.4 ft. / 109.2 m (surveyed)
Variation: 02W (2020)
From city: 5 miles SE of TRENTON, TN
Time zone: UTC -5 (UTC -6 during Standard Time)
Zip code: 38358

Airport Operations

Airport use: Open to the public
Control tower: no
ARTCC: MEMPHIS CENTER
FSS: JACKSON FLIGHT SERVICE STATION
NOTAMs facility: MKL (NOTAM-D service available)
Attendance: MON-SAT 0900-1700
Wind indicator: lighted
Segmented circle: yes
Lights: SS-SR
Beacon: white-green (lighted land airport)
Operates sunset to sunrise.

Airport Communications

CTAF/UNICOM: 122.8
  • APCH/DEP SVC PRVDD BY MEMPHIS ARTCC ON FREQS 134.65/316.15 (MCKELLAR RCAG).

Nearby radio navigation aids

VOR radial/distance  VOR name  Freq  Var
MKLr010/20.0MC KELLAR VOR/DME112.0001W
DYRr100/23.3DYERSBURG VORTAC116.8003E

 
NDB name  Hdg/Dist  Freq  Var  ID
HUNTINGDON245/20.821702WHZD .... --.. -..
MERSY013/25.539401WMKL -- -.- .-..
TRAINER228/28.441000ETIQ - .. --.-

Airport Services

Fuel available: 100LL JET-A+
SELF SERVICE AVAILABLE 24/7 WITH CREDIT CARD.
Parking: hangars and tiedowns
Airframe service: NONE
Powerplant service: NONE
Bottled oxygen: NONE
Bulk oxygen: NONE

Runway Information

Runway 1/19

Dimensions: 4802 x 75 ft. / 1464 x 23 m
Surface: asphalt, in good condition
Weight bearing capacity: 
Single wheel: 30.0
Runway edge lights: medium intensity
Gradient: RY 19 SLOPE 0.08 UP SOUTH.
RUNWAY 1  RUNWAY 19
Latitude: 35-55.556222N35-56.338162N
Longitude: 088-51.011577W088-50.861455W
Elevation: 358.0 ft.355.1 ft.
Traffic pattern: leftleft
Runway heading: 011 magnetic, 009 true191 magnetic, 189 true
Markings: nonprecision, in good conditionnonprecision, in good condition
Visual slope indicator: 2-light PAPI on left (3.00 degrees glide path)2-light PAPI on left (3.00 degrees glide path)
Runway end identifier lights: yesyes
Touchdown point: yes, no lightsyes, no lights
Obstructions: 55 ft. tree, 1168 ft. from runway, 1167 ft. left of centerline, 17:1 slope to clear102 ft. tree, 2044 ft. from runway, 2041 ft. right of centerline, 18:1 slope to clear

Airport Ownership and Management from official FAA records

Ownership: Publicly-owned
Owner: GIBSON COUNTY
ONE COURT SQUARE, SUITE 200
TRENTON, TN 38382
Phone 731-855-7613
Manager: ART HOPPERS
56 AIRPORT RD
MILAN, TN 38358
Phone 731-723-9596

Airport Operational Statistics

Aircraft based on the field: 18
Single engine airplanes: 16
Multi engine airplanes: 1
Ultralights: 1
    
Aircraft operations: avg 25/day *
59% local general aviation
21% air taxi
19% transient general aviation
1% military
* for 12-month period ending 31 May 2016

Additional Remarks

FOR CD CTC MEMPHIS ARTCC AT 901-368-8453.

Instrument Procedures

NOTE: All procedures below are presented as PDF files. If you need a reader for these files, you should download the free Adobe Reader.

NOT FOR NAVIGATION. Please procure official charts for flight.
FAA instrument procedures published for use from 15 August 2019 at 0901Z to 12 September 2019 at 0900Z.

 
IAPs - Instrument Approach Procedures
RNAV (GPS) RWY 01   download (199KB)
RNAV (GPS) RWY 19   download (198KB)
NOTE: Special Take-Off Minimums/Departure Procedures apply   download (272KB)

Other nearby airports with instrument procedures:

M53 - Humboldt Municipal Airport (8 nm S)
KMKL - Mc Kellar-Sipes Regional Airport (20 nm S)
KHZD - Carroll County Airport (21 nm NE)
KDYR - Dyersburg Regional Airport (27 nm W)
KUCY - Everett-Stewart Regional Airport (28 nm N)
 
Loc | Ops | Rwys | IFR | FBO | Links
Com | Nav | Svcs | Stats | Notes
Area around KTGC (Gibson County Airport)
 
Road maps at: MapQuest Bing Google
 
Aerial photo
WARNING: Photo may not be current or correct
Aerial photo of KTGC (Gibson County Airport)
Photo taken 03-Nov-2007
from FL270

Do you have a better or more recent aerial photo of Gibson County Airport that you would like to share? If so, please send us your photo.

 
Sectional chart

 
Airport distance calculator
Flying to Gibson County Airport? Find the distance to fly.

From to KTGC

Sunrise and sunset
Times for 17-Aug-2019
 Local
(UTC-5)
 Zulu
(UTC)
Morning civil twilight05:4910:49
Sunrise06:1611:16
Sunset19:4200:42
Evening civil twilight20:0901:09

Current date and time
Zulu (UTC)  18-Aug-2019 02:52:23
Local (UTC-5)  17-Aug-2019 21:52:23
 
METAR
KMKL 
20nm S 
180153Z AUTO 19003KT 10SM CLR 24/23 A2994 RMK AO2 SLP133 T02440233
KHZD 
21nm NE 
180235Z AUTO 00000KT 10SM CLR 25/22 A2995 RMK A01
KDYR 
27nm W 
180156Z AUTO 14003KT 9SM CLR 27/23 A2993 RMK AO2 SLP138 T02670228
KUCY 
28nm N 
180235Z AUTO 00000KT 10SM CLR 25/22 A2992 RMK A01
KPHT 
33nm NE 
180235Z AUTO 00000KT 10SM CLR 23/21 A2995 RMK A01
KPVE 
36nm SE 
180235Z AUTO 00000KT 10SM CLR 23/22 A2995 RMK A01
TAF
KMKL 
20nm S 
171730Z 1718/1818 21005KT P6SM FEW040 SCT250 FM180100 VRB03KT P6SM SCT250 FM181500 21006KT P6SM FEW040 BKN250
NOTAMs
Click for the latest NOTAMs
NOTAMs are issued by the DoD/FAA and will open in a separate window not controlled by AirNav.

 

 
 

FBO, Fuel Providers, and Aircraft Ground Support

  
 Business Name 
 
 Contact 
 
 Services / Description 
 
Fuel Prices
 
Comments
  
Gibson County Airport 731-723-9596
[email]
Airport management, Aviation fuel, Aircraft parking (ramp or tiedown), Pilot supplies, Public telephone, Restrooms

More info about Gibson County Airport
Shell
100LL Jet A
FS $4.32 $3.50 
SS $4.32 $3.50 
 Updated 14-Aug-2019
 
   1 read write
FS=Full service
SS=Self service
Update Fuel Prices
 

Would you like to see your business listed on this page?

 If your business provides an interesting product or service to pilots, flight crews, aircraft, or users of the Gibson County Airport, you should consider listing it here.  To start the listing process, click on the button below
 
Add a business
 

Other Pages about Gibson County Airport

Update a link
 
Copyright © AirNav, LLC. All rights reserved. Privacy Policy  Contact